Temp
15 15 14 14 14 14 13 12 12 12 12 11 11 12 11 12 12 12 11 10 10 10 10 9 9 9 9 9 9 9 9 9 9 9 9 9 9 9 9 9 9 9 9 9 8 9 9 9 9
15 15 14 14 14 14 13 12 12 12 12 12 12 12 11 12 12 12 11 10 10 10 10 10 9 9 9 9 9 9 9 9 9 9 9 9 9 9 9 9 9 9 9 9 9 9 9 9 8
15 15 15 14 14 13 13 13 13 12 12 11 11 11 11 12 12 11 11 11 10 10 10 10 9 9 9 9 9 9 9 9 10 9 9 9 9 9 9 9 9 9 9 9 9 9 9 9 9
15 15 14 14 13 13 13 13 12 13 12 12 12 12 12 12 11 11 11 11 10 10 10 10 10 9 9 10 9 10 9 10 10 9 9 9 9 9 9 9 9 9 9 9 9 9 9 9 9
15 15 14 14 14 14 13 13 13 13 13 12 12 12 12 11 11 11 11 11 10 10 10 10 10 10 10 9 9 10 10 9 9 9 9 9 9 9 9 9 9 9 9 9 9 9 9 9 9
15 15 15 14 14 14 13 13 13 13 12 12 12 13 12 11 11 11 11 11 11 10 10 10 10 10 10 10 10 9 9 9 9 9 9 9 9 9 9 9 9 9 9 9 9 9 9 9 9
15 15 15 15 14 14 14 13 13 13 12 12 12 13 13 12 11 11 11 11 11 10 10 10 10 10 10 10 9 9 9 9 9 9 9 9 9 9 9 9 9 9 9 9 9 9 9 9 9
16 16 15 15 15 14 14 14 13 12 13 12 11 11 13 13 12 11 11 11 11 10 10 10 10 10 10 9 9 9 9 8 8 8 9 9 9 9 8 8 8 9 9 9 9 9 9 9 9
16 16 16 15 15 15 15 14 14 13 13 12 12 12 12 12 12 11 11 11 11 11 10 10 10 10 10 10 9 9 9 8 8 9 9 9 9 9 9 9 8 8 9 8 9 9 9 9 9
17 16 16 16 15 15 15 14 14 13 13 12 12 13 12 12 12 11 11 11 11 11 10 10 10 10 10 9 9 9 9 9 9 9 9 9 9 9 8 9 9 8 8 8 8 9 9 8 8
17 17 16 16 15 15 15 15 14 13 13 13 13 13 13 12 11 11 11 11 11 11 11 10 10 10 10 9 9 9 9 9 9 9 9 9 9 9 9 9 8 8 8 8 8 8 8 8 8
17 17 16 16 16 16 15 15 15 14 13 14 14 12 12 12 11 11 11 11 11 11 11 11 10 10 10 10 10 10 10 9 9 9 9 9 9 9 9 9 8 8 8 8 8 8 8 8 8
17 17 17 16 16 15 15 15 15 15 14 14 14 13 11 11 10 11 11 11 11 11 11 10 10 10 10 10 10 9 10 9 9 9 9 9 9 8 8 8 8 8 8 8 8 8 8 8 8
17 17 17 16 16 16 16 15 16 15 15 14 14 13 11 11 11 11 11 10 10 10 10 10 10 10 10 10 10 9 9 9 9 9 8 8 8 8 8 8 8 8 8 8 8 8 8 8 9
17 17 17 16 16 16 15 15 16 15 15 14 14 14 12 11 11 11 10 10 10 10 10 10 10 10 10 10 10 10 9 9 9 9 8 8 8 8 9 9 9 9 8 8 9 8 8 8 9
16 16 16 16 16 16 15 16 16 16 15 15 15 14 13 12 11 11 10 10 10 10 10 10 10 10 10 10 10 10 10 9 9 9 8 8 8 8 9 9 9 9 9 9 9 9 9 9 9
16 16 16 16 16 15 15 16 15 16 16 15 15 15 14 14 12 11 11 10 10 10 10 10 10 10 10 10 10 10 10 9 9 9 9 9 8 8 9 9 9 9 9 9 9 9 9 10 9
16 16 16 17 16 16 16 17 16 16 17 16 15 15 15 14 14 13 12 11 10 10 10 10 9 10 10 10 10 10 10 9 9 9 9 9 9 8 9 9 9 9 9 9 9 9 9 9 9
16 16 16 17 16 16 16 16 16 16 16 17 17 16 16 15 14 13 12 11 11 10 10 10 9 9 10 10 10 10 10 10 10 9 10 9 9 9 9 9 9 9 9 9 9 9 9 9 9
16 16 16 17 17 17 17 17 17 17 17 16 16 17 17 15 15 14 13 12 11 10 10 10 9 9 9 10 10 10 10 10 10 9 10 9 9 9 9 9 10 9 9 9 9 9 10 10 10
16 16 17 16 17 17 17 18 18 18 18 18 17 17 17 16 15 14 13 13 11 11 11 10 9 9 9 10 10 10 10 10 10 9 9 9 9 9 9 9 10 9 9 9 9 9 10 10 10
16 16 16 16 17 17 17 18 18 18 18 18 18 18 18 17 16 15 13 13 13 11 11 10 10 10 10 10 10 10 9 9 9 10 9 9 9 9 9 9 9 9 9 9 9 9 10 10 10
16 16 16 17 17 16 17 16 18 18 18 18 19 18 18 17 16 15 14 13 12 11 11 11 10 10 10 10 10 10 10 9 10 10 9 9 9 9 9 9 9 9 9 9 9 9 9 9 9
15 16 16 16 16 17 17 16 18 18 18 19 19 18 18 17 16 15 14 13 13 12 12 11 11 11 11 11 11 10 10 10 9 9 10 9 9 9 9 9 9 9 9 9 9 9 9 9 9
15 16 17 17 17 18 16 15 18 18 18 19 19 19 18 17 16 16 15 14 14 13 12 12 12 12 11 11 11 10 10 10 10 10 10 9 9 9 9 10 9 9 9 9 8 9 9 9 9
16 16 17 16 17 18 15 16 18 18 18 19 19 18 18 17 16 16 15 14 14 14 13 13 13 12 12 11 10 10 10 9 9 9 9 10 9 9 10 9 9 9 8 8 8 9 9 9 9
16 16 17 16 14 15 16 17 18 18 18 18 19 18 17 17 17 16 16 15 14 14 14 13 13 12 12 11 10 10 10 10 9 9 10 9 9 9 9 10 9 9 8 8 8 9 9 9 9
16 17 16 16 16 16 17 16 18 18 18 18 18 17 17 16 16 16 16 15 15 14 14 13 13 13 12 11 11 10 10 9 10 10 10 9 9 9 9 9 9 8 8 8 8 9 9 9 9
16 16 16 16 16 17 18 18 18 18 18 18 18 17 16 16 16 15 15 15 15 15 14 14 13 13 13 12 12 11 11 10 9 10 10 10 9 8 8 8 9 8 8 8 8 8 9 9 9
17 17 17 17 15 15 15 17 18 18 18 18 17 17 17 16 16 15 16 15 15 15 14 14 14 14 13 13 12 13 12 11 10 9 10 10 10 8 7 7 8 8 8 8 8 8 9 9 9
Height
3171 3171 3171 3170 3173 3171 3170 3173 3172 3172 3172 3172 3173 3174 3175 3175 3176 3181 3180 3182 3183 3185 3187 3188 3190 3191 3192 3193 3194 3195 3197 3198 3200 3199 3200 3200 3200 3202 3202 3202 3203 3203 3204 3206 3206 3206 3207 3208 3210
3173 3173 3173 3171 3173 3172 3173 3173 3174 3174 3173 3172 3173 3175 3176 3177 3176 3178 3181 3183 3185 3188 3189 3190 3191 3193 3193 3197 3196 3198 3199 3201 3202 3202 3203 3202 3203 3204 3204 3204 3204 3206 3206 3207 3208 3208 3209 3210 3211
3176 3176 3174 3172 3173 3174 3176 3175 3175 3174 3174 3174 3175 3176 3176 3177 3178 3181 3183 3185 3187 3189 3190 3192 3192 3194 3195 3198 3198 3201 3201 3203 3203 3204 3205 3204 3205 3205 3206 3206 3207 3208 3209 3210 3209 3209 3210 3211 3212
3179 3179 3178 3177 3176 3177 3177 3178 3177 3177 3176 3175 3175 3176 3178 3178 3180 3183 3185 3186 3188 3191 3193 3195 3195 3196 3198 3200 3199 3203 3204 3204 3206 3206 3206 3206 3207 3207 3207 3208 3208 3209 3211 3211 3210 3211 3211 3212 3213
3182 3182 3180 3179 3179 3179 3180 3179 3179 3179 3178 3177 3178 3178 3179 3180 3182 3184 3187 3188 3190 3192 3195 3196 3197 3198 3199 3200 3202 3205 3206 3206 3207 3206 3206 3208 3208 3209 3209 3209 3210 3211 3212 3212 3212 3212 3213 3213 3214
3186 3185 3183 3182 3182 3182 3182 3181 3181 3180 3179 3179 3179 3179 3180 3181 3183 3185 3187 3190 3191 3193 3196 3198 3199 3200 3201 3203 3204 3205 3206 3207 3207 3207 3206 3209 3208 3210 3211 3211 3212 3213 3213 3213 3212 3213 3214 3214 3215
3188 3187 3186 3184 3184 3184 3184 3183 3183 3183 3182 3181 3181 3181 3182 3182 3183 3186 3189 3191 3193 3195 3197 3199 3201 3201 3203 3204 3205 3205 3206 3207 3207 3206 3207 3209 3210 3211 3211 3211 3212 3213 3213 3213 3214 3213 3214 3215 3216
3188 3189 3188 3187 3186 3186 3185 3185 3184 3184 3184 3183 3182 3183 3184 3183 3185 3187 3189 3191 3194 3196 3197 3199 3201 3203 3204 3205 3206 3207 3207 3207 3207 3207 3208 3209 3210 3211 3212 3211 3212 3213 3213 3213 3213 3213 3214 3214 3216
3189 3190 3189 3189 3188 3188 3187 3186 3186 3185 3185 3184 3184 3184 3185 3185 3185 3188 3190 3192 3194 3196 3199 3200 3202 3203 3205 3206 3207 3208 3208 3206 3208 3209 3209 3210 3211 3211 3212 3212 3213 3213 3213 3213 3213 3213 3214 3214 3215
3190 3190 3190 3191 3190 3190 3188 3188 3188 3188 3186 3185 3185 3184 3185 3186 3188 3190 3193 3194 3196 3198 3200 3202 3203 3204 3206 3207 3207 3208 3208 3209 3210 3211 3211 3211 3212 3212 3213 3213 3213 3214 3213 3213 3213 3213 3213 3213 3213
3191 3190 3191 3192 3191 3190 3190 3189 3189 3188 3188 3186 3185 3185 3185 3187 3189 3190 3193 3195 3198 3199 3202 3204 3204 3205 3206 3208 3209 3209 3210 3211 3211 3212 3213 3213 3213 3212 3214 3214 3214 3214 3214 3212 3212 3212 3212 3212 3211
3192 3192 3192 3192 3192 3192 3192 3191 3191 3190 3189 3187 3186 3186 3187 3188 3190 3192 3193 3195 3197 3200 3202 3204 3206 3207 3208 3209 3210 3211 3211 3212 3212 3213 3213 3213 3214 3214 3214 3214 3214 3213 3213 3212 3212 3211 3211 3210 3209
3192 3193 3193 3193 3193 3192 3193 3193 3192 3191 3190 3189 3187 3188 3190 3190 3191 3192 3193 3195 3197 3200 3202 3204 3206 3208 3209 3210 3211 3212 3212 3213 3214 3214 3214 3214 3214 3214 3213 3213 3213 3213 3212 3211 3210 3210 3209 3208 3207
3193 3193 3193 3193 3193 3193 3193 3193 3192 3192 3191 3191 3190 3189 3191 3193 3194 3194 3195 3197 3198 3200 3202 3204 3205 3208 3209 3210 3211 3212 3213 3214 3214 3214 3214 3214 3214 3213 3213 3212 3212 3211 3211 3210 3209 3208 3207 3206 3205
3193 3193 3194 3194 3194 3194 3193 3193 3192 3193 3193 3193 3192 3192 3192 3194 3195 3197 3197 3198 3199 3201 3202 3204 3206 3207 3209 3211 3212 3212 3213 3213 3214 3215 3215 3215 3214 3213 3212 3212 3212 3211 3210 3209 3207 3206 3205 3204 3202
3192 3194 3194 3195 3194 3194 3194 3193 3192 3192 3193 3193 3193 3193 3193 3193 3195 3196 3196 3198 3199 3201 3203 3203 3205 3207 3209 3211 3212 3212 3213 3214 3214 3215 3215 3215 3214 3213 3212 3211 3211 3210 3209 3207 3206 3204 3202 3200 3199
3192 3193 3194 3195 3194 3193 3193 3191 3190 3190 3191 3192 3193 3193 3193 3194 3194 3194 3195 3197 3199 3201 3202 3204 3205 3206 3208 3209 3211 3212 3213 3214 3214 3214 3214 3214 3214 3214 3214 3212 3210 3208 3208 3207 3205 3202 3200 3198 3198
3191 3192 3193 3193 3194 3191 3191 3190 3189 3189 3190 3190 3191 3192 3193 3193 3193 3193 3194 3195 3197 3199 3201 3203 3204 3206 3207 3208 3210 3212 3212 3213 3214 3214 3214 3214 3214 3214 3214 3212 3210 3208 3207 3206 3204 3202 3200 3198 3197
3190 3192 3192 3192 3192 3190 3189 3188 3187 3187 3187 3187 3188 3189 3191 3192 3192 3192 3193 3193 3194 3197 3199 3202 3203 3205 3206 3208 3209 3210 3211 3213 3213 3214 3213 3213 3213 3213 3212 3211 3210 3208 3207 3205 3204 3202 3201 3199 3197
3189 3190 3191 3191 3190 3189 3186 3185 3185 3184 3184 3184 3185 3186 3187 3190 3190 3191 3192 3192 3192 3195 3198 3200 3202 3203 3204 3206 3208 3209 3210 3211 3212 3212 3211 3212 3212 3211 3211 3210 3209 3208 3206 3205 3204 3203 3202 3199 3198
3187 3188 3189 3191 3188 3187 3186 3183 3182 3182 3181 3181 3180 3182 3182 3186 3189 3189 3190 3191 3191 3191 3194 3198 3200 3202 3203 3205 3206 3208 3209 3210 3210 3210 3209 3210 3211 3210 3210 3208 3207 3207 3206 3205 3203 3202 3201 3199 3198
3185 3187 3188 3189 3189 3188 3186 3185 3181 3181 3180 3179 3178 3177 3178 3180 3185 3187 3188 3189 3190 3190 3193 3196 3197 3200 3201 3203 3205 3206 3207 3208 3208 3208 3209 3209 3209 3209 3209 3208 3206 3206 3206 3206 3203 3202 3201 3200 3198
3184 3184 3186 3187 3186 3185 3185 3186 3179 3179 3178 3177 3175 3174 3174 3177 3180 3184 3186 3189 3190 3190 3192 3195 3196 3197 3200 3202 3203 3205 3206 3206 3206 3207 3207 3206 3207 3207 3206 3206 3206 3206 3205 3205 3203 3202 3201 3200 3198
3180 3182 3183 3184 3183 3184 3183 3184 3175 3177 3175 3174 3172 3170 3171 3173 3176 3180 3184 3186 3188 3188 3190 3193 3195 3196 3198 3200 3202 3203 3204 3205 3205 3205 3205 3204 3204 3204 3204 3204 3204 3204 3203 3202 3202 3200 3199 3197 3197
3176 3180 3181 3182 3181 3180 3180 3181 3176 3174 3173 3170 3168 3168 3169 3171 3173 3177 3180 3183 3185 3187 3189 3191 3193 3195 3197 3198 3200 3201 3202 3203 3204 3204 3203 3202 3203 3202 3202 3202 3202 3202 3201 3201 3201 3200 3197 3195 3194
3173 3177 3177 3179 3178 3178 3178 3177 3174 3171 3170 3169 3168 3168 3169 3170 3172 3175 3177 3180 3183 3186 3188 3190 3192 3195 3196 3197 3199 3200 3201 3202 3202 3202 3202 3201 3201 3201 3202 3201 3200 3200 3199 3199 3199 3198 3197 3196 3194
3171 3173 3175 3177 3178 3178 3175 3173 3170 3168 3169 3168 3168 3168 3169 3170 3171 3173 3174 3175 3178 3181 3185 3188 3191 3193 3195 3198 3199 3200 3201 3201 3200 3200 3201 3199 3199 3199 3198 3199 3197 3197 3197 3197 3197 3197 3196 3194 3193
3168 3170 3174 3175 3177 3175 3172 3170 3169 3168 3167 3167 3168 3168 3168 3170 3170 3171 3171 3172 3172 3176 3181 3185 3188 3192 3195 3196 3197 3197 3198 3198 3200 3200 3200 3199 3197 3194 3195 3196 3196 3194 3194 3195 3194 3195 3194 3194 3192
3165 3167 3170 3172 3173 3171 3170 3169 3168 3167 3167 3167 3167 3166 3167 3167 3167 3167 3167 3168 3168 3171 3175 3180 3184 3188 3191 3192 3193 3191 3190 3191 3194 3195 3196 3196 3193 3190 3189 3190 3192 3193 3192 3192 3192 3193 3193 3192 3191
3162 3165 3167 3169 3170 3169 3170 3170 3167 3167 3167 3167 3166 3165 3165 3165 3165 3165 3164 3165 3166 3168 3171 3176 3179 3183 3186 3187 3190 3190 3189 3187 3189 3190 3193 3192 3189 3186 3184 3186 3188 3188 3189 3189 3190 3190 3190 3190 3189
Wind_Speed
8 9 12 11 8 10 12 8 7 5 3 3 6 4 3 5 7 8 16 17 18 17 18 21 20 19 19 18 18 18 16 15 14 15 13 13 14 13 14 14 13 12 12 12 11 11 10 12 13
9 9 8 10 12 12 10 9 7 6 5 2 4 2 3 2 6 16 17 18 18 16 16 18 19 18 18 14 15 14 14 13 13 14 12 13 13 13 14 13 12 11 10 10 11 11 11 11 11
11 11 14 8 9 9 8 9 10 11 9 4 5 2 1 3 14 15 16 17 18 15 14 14 16 15 16 12 14 11 12 11 12 12 12 13 12 12 12 12 11 10 9 9 9 10 9 10 10
13 16 16 18 14 12 10 9 9 10 8 6 4 4 9 19 15 15 16 16 17 15 13 13 14 15 14 13 13 11 12 12 10 11 12 12 11 11 9 9 10 9 8 8 8 7 7 8 9
10 10 13 15 15 14 14 12 11 10 12 9 9 10 16 19 19 16 16 16 16 15 13 13 14 14 13 13 12 11 11 11 10 10 11 9 10 8 7 7 7 6 7 7 6 6 6 5 6
9 12 11 11 13 11 12 12 14 11 12 12 7 9 16 19 18 18 17 16 17 15 13 12 13 13 14 12 11 10 10 10 10 8 10 7 8 6 5 5 4 3 3 5 5 5 6 5 4
3 8 8 9 13 12 12 11 8 9 11 11 9 4 12 17 19 18 18 17 17 16 15 13 12 12 12 11 10 9 8 7 8 7 7 5 6 4 3 3 3 2 2 1 1 1 3 5 5
2 5 5 5 8 10 10 12 9 6 7 9 6 1 9 13 17 18 18 17 16 16 16 14 13 12 11 10 9 9 8 6 6 5 5 5 4 3 1 2 1 2 1 1 2 3 3 3 4
7 3 4 4 7 12 14 10 12 9 9 7 6 4 7 11 16 17 16 17 16 16 16 15 13 11 10 10 10 9 8 9 9 7 5 5 5 6 6 5 5 6 4 4 3 3 5 5 5
8 7 3 2 3 7 14 12 10 14 13 10 8 6 9 10 14 14 13 13 15 14 14 14 13 11 10 9 8 7 6 7 9 7 7 6 5 4 4 4 3 3 2 2 3 1 3 5 6
5 8 2 2 1 5 10 14 11 12 13 11 8 5 9 12 17 15 15 15 13 14 13 12 11 10 9 8 7 5 5 4 5 5 4 4 3 1 1 1 0 2 2 5 6 3 5 7 8
6 2 2 0 1 4 5 12 12 12 11 10 8 7 6 11 15 12 15 13 12 12 12 10 9 9 9 7 5 4 4 5 5 3 1 2 1 1 2 2 3 5 6 8 6 6 10 10 12
4 3 5 2 3 2 4 7 7 10 10 9 10 7 8 16 21 21 20 16 14 12 10 10 9 7 8 5 4 3 3 3 2 2 2 3 3 5 4 4 6 7 7 9 10 10 11 11 12
6 6 2 2 4 5 5 6 7 8 9 8 10 7 12 19 16 18 21 20 17 14 11 9 9 8 5 5 5 3 3 3 2 2 1 2 6 9 5 6 5 6 8 11 11 13 13 12 12
7 8 4 3 3 6 6 9 8 6 4 7 10 7 11 14 13 16 18 18 16 16 15 10 7 8 7 5 3 1 2 1 2 3 3 3 6 5 4 3 5 6 9 11 13 14 14 15 14
7 7 3 2 3 5 8 14 11 10 1 5 8 8 6 8 15 19 18 15 14 13 11 11 8 6 5 4 3 2 1 1 1 1 1 2 7 5 5 6 7 8 10 11 11 10 9 10 7
5 9 4 0 6 9 12 18 11 8 5 2 4 4 6 4 16 19 18 18 14 11 8 7 7 5 6 5 5 3 2 3 3 4 5 3 5 6 6 7 7 8 7 9 12 9 8 6 5
9 9 7 5 10 6 8 11 8 8 10 11 9 3 1 1 6 15 18 19 15 11 8 7 6 4 8 8 6 5 3 3 5 6 6 7 6 6 8 8 8 7 6 8 10 10 10 8 6
10 8 8 5 7 13 12 11 11 9 10 12 14 14 9 5 5 11 18 19 17 14 11 8 6 4 7 8 7 7 6 5 5 6 5 4 5 7 7 8 8 8 8 8 7 8 10 10 9
11 8 8 7 11 17 13 13 16 17 15 13 12 14 9 8 10 7 11 16 17 14 11 10 8 7 9 10 9 7 5 4 3 4 4 5 7 8 7 8 7 8 8 7 6 6 6 7 7
17 12 9 11 16 15 11 10 4 11 15 16 18 14 13 11 10 9 6 9 16 16 12 10 9 6 9 10 9 5 3 2 3 5 4 5 6 6 7 7 6 7 7 6 6 5 4 4 5
15 16 14 13 16 8 10 8 10 12 16 18 22 15 10 11 13 13 11 10 8 15 14 13 12 7 7 8 6 3 3 4 4 4 5 6 6 6 8 8 8 6 6 6 6 6 5 5 4
18 17 15 16 15 10 11 6 19 20 16 16 14 14 7 9 14 13 6 7 10 14 13 11 8 9 8 6 5 4 4 2 1 2 4 6 5 6 6 6 6 5 5 6 6 8 7 6 5
20 17 13 14 8 5 8 8 19 15 15 19 19 11 7 6 13 17 12 11 13 16 16 16 13 10 8 6 5 5 3 2 2 3 7 10 6 7 5 3 3 3 5 5 7 8 8 7 7
21 13 7 7 6 8 7 7 17 23 21 17 13 6 6 9 12 14 15 14 17 16 16 14 11 10 9 8 7 6 5 4 3 6 7 9 7 7 7 4 4 4 6 8 10 10 6 5 5
17 14 7 6 5 9 7 7 15 15 14 5 5 5 5 5 5 4 8 13 19 16 15 14 11 10 8 8 6 5 6 6 7 8 9 9 10 9 11 8 7 6 6 8 10 8 9 7 5
13 13 10 8 5 4 6 13 14 9 3 3 3 7 2 4 6 3 7 11 17 24 18 18 14 11 7 7 7 6 4 8 10 11 11 12 12 13 13 17 12 9 7 8 9 8 7 6 4
16 12 5 6 2 4 4 8 7 8 7 5 7 6 2 1 4 2 5 6 14 25 26 23 19 15 9 8 7 8 7 10 11 10 12 14 17 22 22 20 20 14 11 9 8 8 8 5 4
19 15 10 6 5 3 3 5 6 7 3 3 6 5 3 4 4 8 8 8 13 25 30 27 23 18 14 13 11 10 11 11 11 9 11 12 19 24 24 23 26 20 17 13 9 9 8 6 4
7 11 13 9 5 7 4 11 13 3 2 3 7 7 5 2 4 5 8 10 4 24 27 28 26 20 17 17 15 13 17 15 18 12 9 10 14 15 15 22 25 30 28 21 15 10 7 5 3
Wind_Direction
52 40 38 51 68 69 64 67 84 79 64 114 159 66 59 84 47 129 137 131 123 123 121 122 124 124 119 119 117 114 115 114 115 111 110 106 105 107 104 102 102 107 115 123 128 122 128 134 134
36 32 34 55 61 65 58 81 95 64 53 120 161 194 50 38 34 129 134 130 125 126 123 119 119 121 114 118 112 111 116 117 117 108 111 105 102 103 98 102 103 108 113 116 121 119 123 126 141
37 38 42 35 54 63 74 78 74 44 40 85 149 215 192 77 121 128 129 129 125 124 117 114 113 113 113 112 113 117 122 120 109 114 106 101 99 92 92 99 101 103 110 113 116 114 118 122 138
51 52 52 57 67 65 75 76 59 50 58 78 112 125 119 120 122 126 127 128 123 122 119 117 115 113 116 117 108 110 117 117 115 109 101 98 99 94 91 95 102 110 117 113 106 103 111 123 136
37 42 51 63 66 76 69 66 59 52 53 74 116 119 124 120 126 127 126 125 121 119 119 118 114 113 111 110 115 121 116 113 113 105 97 99 94 90 92 94 101 111 121 114 110 103 104 130 139
55 33 50 56 74 85 80 68 59 49 57 63 87 126 128 128 131 133 133 131 125 120 118 118 116 116 117 120 121 117 113 112 109 104 102 105 97 92 92 95 87 97 115 127 134 139 129 132 150
31 31 49 64 81 89 85 73 72 46 55 69 64 107 143 140 139 142 142 138 131 127 124 123 121 119 120 119 116 109 103 105 107 106 102 105 99 98 108 110 117 140 141 128 150 188 162 160 159
14 26 360 44 70 87 84 80 72 54 58 45 50 167 167 152 145 149 146 141 138 134 134 130 128 130 126 117 108 98 89 100 115 126 113 88 85 80 137 130 207 204 190 296 254 234 228 228 199
28 346 346 354 62 73 70 70 72 55 41 45 40 123 162 168 152 154 153 148 144 142 142 138 138 138 128 120 109 97 83 85 96 110 112 104 97 104 105 105 97 109 109 43 3 235 257 259 241
36 16 4 347 33 64 65 69 61 47 46 48 50 120 142 168 151 148 147 146 142 143 143 140 139 138 129 119 109 101 94 85 85 95 94 100 102 105 99 107 114 130 102 42 48 39 296 289 272
54 38 355 299 217 90 64 59 63 47 46 44 53 114 145 156 152 147 146 142 146 146 144 143 142 137 128 119 113 107 102 109 90 78 71 90 90 107 113 113 268 258 265 308 317 325 313 290 274
84 64 6 265 45 56 62 61 57 48 50 50 63 111 149 158 158 145 145 139 141 146 147 142 144 140 127 117 105 93 87 90 88 78 81 29 360 322 307 296 309 294 285 296 310 306 310 288 272
120 157 350 274 321 353 43 47 59 56 48 47 61 117 148 147 143 142 138 138 141 144 148 147 149 154 140 119 129 82 87 72 18 45 64 360 4 345 317 313 305 307 306 300 312 304 306 302 298
92 123 20 200 289 333 2 17 5 27 62 52 64 106 156 159 159 147 132 119 116 129 143 152 155 163 191 153 132 119 114 71 29 338 306 325 337 333 342 316 327 319 318 313 304 304 300 301 295
120 179 171 176 270 282 298 326 308 339 61 71 52 85 163 184 176 148 133 125 118 107 104 118 136 164 165 173 152 107 75 360 301 321 4 356 356 351 354 3 337 319 313 316 311 306 306 295 292
135 164 166 333 333 282 284 306 311 307 283 69 61 60 106 177 168 159 149 144 135 120 106 94 119 146 167 180 193 212 207 236 285 291 344 323 335 313 321 332 336 322 323 334 335 316 299 296 296
138 138 137 331 341 285 282 311 303 301 310 328 25 43 67 138 193 179 165 151 143 139 120 104 99 163 184 203 227 242 270 288 293 280 292 301 330 319 333 342 332 328 346 354 358 355 343 319 308
135 161 197 307 342 307 294 306 319 308 312 318 311 309 64 190 163 192 182 163 164 160 162 170 142 162 205 217 237 251 260 291 284 292 285 296 320 318 330 341 331 336 347 357 9 7 5 10 354
174 191 231 315 354 339 294 305 346 286 294 315 316 309 294 246 207 174 183 178 174 177 188 197 195 191 212 222 229 239 250 263 268 281 296 323 337 315 333 331 328 337 345 354 5 8 13 21 28
226 229 271 305 332 333 314 306 300 299 318 298 287 286 295 233 256 212 183 179 174 163 181 201 198 220 213 206 224 238 247 256 277 315 270 297 313 317 325 323 330 336 349 352 360 8 6 17 29
227 237 267 301 312 324 339 309 325 328 322 317 300 288 268 226 244 239 203 180 172 167 169 176 181 195 205 205 215 221 219 204 247 282 267 294 310 320 309 328 337 342 342 345 353 353 357 5 19
230 237 272 289 294 293 312 305 289 315 323 316 316 311 290 238 209 233 219 197 184 160 162 179 179 183 188 207 226 203 163 193 237 298 313 309 311 310 320 333 348 352 345 343 352 358 360 360 3
235 254 266 271 275 274 277 272 288 304 301 304 306 303 281 239 213 218 191 193 179 175 176 189 186 186 188 182 174 164 147 170 280 307 292 279 288 289 316 340 353 341 342 339 349 345 340 341 344
229 240 244 260 253 239 270 259 292 312 304 307 312 284 256 224 214 214 198 194 192 189 184 189 203 195 188 182 176 167 173 202 234 273 260 262 274 272 294 328 324 324 326 323 321 320 313 308 305
207 215 209 218 226 267 260 230 275 302 297 300 315 281 277 207 207 219 218 204 201 185 167 167 171 180 179 174 177 175 195 219 243 255 262 262 263 271 275 273 281 302 315 315 323 318 324 321 310
198 201 218 241 255 292 253 238 277 288 301 299 335 323 329 187 182 219 238 230 207 203 193 179 162 171 166 155 160 182 202 230 239 253 255 256 268 274 279 259 260 278 300 308 324 329 335 330 323
209 212 229 233 283 270 253 267 276 291 285 30 10 11 34 133 127 177 253 252 228 202 203 189 174 170 172 203 209 221 235 249 244 249 264 257 262 272 278 273 252 259 275 287 320 324 327 323 317
218 228 204 217 232 249 242 274 275 353 14 73 23 36 29 190 186 246 276 251 223 205 195 193 187 182 178 195 201 223 245 262 275 282 283 282 277 272 272 271 274 258 260 270 291 301 309 312 317
217 223 218 218 195 258 257 255 310 342 57 360 9 352 327 328 298 267 265 241 218 198 196 192 192 192 197 207 209 230 244 254 263 266 274 280 299 281 268 257 259 272 266 261 266 286 298 297 307
201 221 220 229 227 225 247 276 293 304 76 15 8 335 324 286 294 309 244 220 213 204 196 194 199 199 199 222 229 246 265 249 249 255 250 300 320 311 284 264 261 264 261 255 259 265 275 278 306